| time (UTC) | temp C | wind direction | speed KPH | gust KPH | rain 1hr cm | rain 24hr cm | rain mn cm | humidity % | barometer mb |
| 20260505035238 | 10 | 45 | 0.0 | 0.0 | 0.00 | 0.00 | 0.00 | 56 | 1011.1 |
| 20260505034223 | 11 | 45 | 0.0 | 1.6 | 0.00 | 0.00 | 0.00 | 54 | 1010.8 |
| 20260505033222 | 12 | 45 | 1.6 | 1.6 | 0.00 | 0.00 | 0.00 | 53 | 1010.8 |
| 20260505032223 | 12 | 110 | 0.0 | 0.0 | 0.00 | 0.00 | 0.00 | 50 | 1010.5 |
| 20260505032124 | 12 | 112 | 0.0 | 0.0 | 0.00 | 0.00 | 0.00 | 51 | 1010.6 |
| 20260505031125 | 12 | 225 | 0.0 | 0.0 | 0.00 | 0.00 | 0.00 | 49 | 1010.5 |
| 20260505030222 | 13 | 360 | 0.0 | 0.0 | 0.00 | 0.00 | 0.00 | 47 | 1010.3 |
| 20260505024225 | 15 | 135 | 0.0 | 0.0 | 0.00 | 0.00 | 0.00 | 41 | 1010.0 |
| 20260505023222 | 15 | 135 | 1.6 | 4.8 | 0.00 | 0.00 | 0.00 | 40 | 1010.1 |
| 20260505022223 | 16 | 225 | 0.0 | 0.0 | 0.00 | 0.00 | 0.00 | 41 | 1009.8 |
| 20260505020323 | 16 | 270 | 0.0 | 1.6 | 0.00 | 0.00 | 0.00 | 38 | 1009.9 |
| 20260505015325 | 17 | 223 | 1.6 | 4.8 | 0.00 | 0.00 | 0.00 | 37 | 1010.0 |
| 20260505013424 | 18 | 184 | 4.8 | 9.7 | 0.00 | 0.00 | 0.00 | 37 | 1009.8 |
| 20260505012522 | 18 | 209 | 6.4 | 16.1 | 0.00 | 0.00 | 0.00 | 37 | 1010.0 |
| 20260505011522 | 18 | 208 | 4.8 | 12.9 | 0.00 | 0.00 | 0.00 | 35 | 1010.0 |
| 20260505010523 | 18 | 207 | 4.8 | 12.9 | 0.00 | 0.00 | 0.00 | 34 | 1010.1 |
| 20260505005524 | 19 | 205 | 6.4 | 16.1 | 0.00 | 0.00 | 0.00 | 34 | 1010.0 |
| 20260505004623 | 19 | 197 | 6.4 | 11.3 | 0.00 | 0.00 | 0.00 | 33 | 1010.1 |
| 20260505003722 | 20 | 195 | 4.8 | 9.7 | 0.00 | 0.00 | 0.00 | 33 | 1009.9 |
| 20260505002722 | 20 | 174 | 3.2 | 6.4 | 0.00 | 0.00 | 0.00 | 33 | 1010.2 |
| 20260505001724 | 20 | 187 | 4.8 | 16.1 | 0.00 | 0.00 | 0.00 | 32 | 1010.2 |
| 20260505000822 | 20 | 163 | 1.6 | 4.8 | 0.00 | 0.00 | 0.00 | 32 | 1010.4 |
| 20260504235825 | 20 | 158 | 11.3 | 17.7 | 0.00 | 0.00 | 0.00 | 31 | 1010.4 |
| 20260504234922 | 21 | 157 | 3.2 | 8.0 | 0.00 | 0.00 | 0.00 | 30 | 1010.2 |
| 20260504233941 | 21 | 155 | 9.7 | 14.5 | 0.00 | 0.00 | 0.00 | 28 | 1010.2 |
| 20260504232925 | 21 | 165 | 6.4 | 12.9 | 0.00 | 0.00 | 0.00 | 27 | 1010.1 |
| 20260504231924 | 21 | 176 | 4.8 | 11.3 | 0.00 | 0.00 | 0.00 | 29 | 1010.1 |
| 20260504230924 | 20 | 163 | 4.8 | 9.7 | 0.00 | 0.00 | 0.00 | 28 | 1010.0 |
| 20260504225923 | 21 | 193 | 9.7 | 20.9 | 0.00 | 0.00 | 0.00 | 27 | 1010.0 |
| 20260504224923 | 21 | 187 | 3.2 | 8.0 | 0.00 | 0.00 | 0.00 | 27 | 1010.0 |
| 20260504223924 | 22 | 159 | 8.0 | 14.5 | 0.00 | 0.00 | 0.00 | 27 | 1010.0 |
| 20260504222922 | 22 | 218 | 4.8 | 8.0 | 0.00 | 0.00 | 0.00 | 25 | 1010.0 |
| 20260504221924 | 23 | 212 | 6.4 | 9.7 | 0.00 | 0.00 | 0.00 | 24 | 1010.0 |
| 20260504221022 | 25 | 221 | 3.2 | 6.4 | 0.00 | 0.00 | 0.00 | 21 | 1010.2 |
| 20260504220023 | 25 | 242 | 1.6 | 6.4 | 0.00 | 0.00 | 0.00 | 20 | 1009.8 |
| 20260504215023 | 25 | 211 | 3.2 | 9.7 | 0.00 | 0.00 | 0.00 | 20 | 1010.0 |
| 20260504214024 | 25 | 222 | 3.2 | 6.4 | 0.00 | 0.00 | 0.00 | 21 | 1010.2 |
| 20260504213123 | 24 | 277 | 3.2 | 8.0 | 0.00 | 0.00 | 0.00 | 22 | 1010.4 |
| 20260504212123 | 25 | 232 | 1.6 | 6.4 | 0.00 | 0.00 | 0.00 | 23 | 1010.6 |
| 20260504211222 | 25 | 251 | 1.6 | 8.0 | 0.00 | 0.00 | 0.00 | 23 | 1010.4 |
| 20260504210224 | 24 | 216 | 3.2 | 8.0 | 0.00 | 0.00 | 0.00 | 23 | 1010.8 |
| 20260504205225 | 24 | 270 | 4.8 | 11.3 | 0.00 | 0.00 | 0.00 | 24 | 1010.8 |
| 20260504203422 | 24 | 219 | 1.6 | 3.2 | 0.00 | 0.00 | 0.00 | 25 | 1010.8 |
| 20260504201423 | 23 | 200 | 4.8 | 11.3 | 0.00 | 0.00 | 0.00 | 26 | 1010.9 |
| 20260504194424 | 22 | 262 | 3.2 | 14.5 | 0.00 | 0.00 | 0.00 | 26 | 1011.2 |
| 20260504190424 | 22 | 250 | 3.2 | 9.7 | 0.00 | 0.00 | 0.00 | 27 | 1011.7 |
| 20260504185423 | 22 | 272 | 6.4 | 11.3 | 0.00 | 0.00 | 0.00 | 27 | 1011.7 |
| 20260504184423 | 22 | 289 | 4.8 | 11.3 | 0.00 | 0.00 | 0.00 | 27 | 1011.7 |
| 20260504183421 | 22 | 250 | 3.2 | 9.7 | 0.00 | 0.00 | 0.00 | 27 | 1012.0 |
| 20260504182424 | 21 | 210 | 3.2 | 8.0 | 0.00 | 0.00 | 0.00 | 28 | 1012.1 |
| 20260504181425 | 22 | 303 | 3.2 | 8.0 | 0.00 | 0.00 | 0.00 | 28 | 1012.3 |
| 20260504180424 | 21 | 297 | 1.6 | 4.8 | 0.00 | 0.00 | 0.00 | 28 | 1012.4 |
| 20260504175423 | 21 | 278 | 1.6 | 4.8 | 0.00 | 0.00 | 0.00 | 30 | 1012.6 |
| 20260504174424 | 20 | 109 | 1.6 | 4.8 | 0.00 | 0.00 | 0.00 | 31 | 1012.7 |
| 20260504174325 | 20 | 134 | 1.6 | 6.4 | 0.00 | 0.00 | 0.00 | 31 | 1012.7 |
| 20260504173324 | 20 | 173 | 0.0 | 3.2 | 0.00 | 0.00 | 0.00 | 32 | 1012.9 |
| 20260504171323 | 18 | 87 | 0.0 | 3.2 | 0.00 | 0.00 | 0.00 | 31 | 1013.2 |
| 20260504170323 | 17 | 360 | 3.2 | 4.8 | 0.00 | 0.00 | 0.00 | 32 | 1013.5 |
| 20260504150722 | 10 | 157 | 0.0 | 3.2 | 0.00 | 0.00 | 0.00 | 46 | 1014.7 |
| 20260504140723 | 4 | 45 | 0.0 | 0.0 | 0.00 | 0.00 | 0.00 | 71 | 1014.8 |
| 20260504081823 | 3 | 22 | 0.0 | 0.0 | 0.00 | 0.00 | 0.00 | 69 | 1013.8 |
| 20260504080823 | 3 | 22 | 0.0 | 0.0 | 0.00 | 0.00 | 0.00 | 66 | 1013.9 |
| 20260504045729 | 9 | 22 | 0.0 | 0.0 | 0.00 | 0.00 | 0.00 | 44 | 1014.4 |
| 20260504044728 | 10 | 22 | 0.0 | 0.0 | 0.00 | 0.00 | 0.00 | 42 | 1014.4 |
| 20260504043828 | 10 | 22 | 0.0 | 0.0 | 0.00 | 0.00 | 0.00 | 41 | 1014.3 |
| 20260504042830 | 11 | 22 | 0.0 | 1.6 | 0.00 | 0.00 | 0.00 | 39 | 1014.3 |
| 20260504040830 | 11 | 22 | 0.0 | 3.2 | 0.00 | 0.00 | 0.00 | 40 | 1014.2 |
| 20260504035730 | 11 | 22 | 0.0 | 0.0 | 0.00 | 0.00 | 0.00 | 38 | 1014.0 |